If you wish to contribute or participate in the discussions about articles you are invited to join SKYbrary as a registered user

 Actions

Arad International Airport

From SKYbrary Wiki

LRAR
Airport
ICAO: LRAR – IATA: ARW
Summary
Name Arad International Airport
Region
Territory Romania RO.gif
Location , Arad
Serving Arad
Elevation 107.29 m
352 ft
352 ft107.29 m
Type medium airport
Coordinates 46° 10' 35.58", 21° 15' 43.2792"
Runways
Designator Length Width Surface ROPS
9/27 2000 m6,561.68 ft 45 m147.638 ft CON /


METAR
Observation LRAR 260130Z AUTO 32004KT 9999 NCD 02/01 Q1037
Station Arad
Date/Time 26 September 2018 01:30:00
Wind direction 320°
Wind speed 04 kts
Lowest cloud amount no clouds detected
Temperature 2°C
Dew point 1°C
Humidity 93%
QNH 1037 hPa
Weather condition n/a